Regional Weather Roundup
Issued by NWS Little Rock, AR

Home | Current Version | Previous Version | Text Only | Print | Product List | Glossary On
Versions: 1 2 3 4 5 6 7 8 9 10 11 12 13 14 15 16 17 18 19 20 21 22 23 24 25 26 27 28 29 30 31 32 33 34 35 36 37 38 39 40 41 42 43 44 45 46 47 48 49 50
000
ASUS44 KLZK 010105
RWRLZK

WEATHER ROUNDUP FOR ARKANSAS
NATIONAL WEATHER SERVICE LITTLE ROCK AR
800 PM CDT TUE JUN 30 2015

NOTE: "FAIR" INDICATES FEW OR NO CLOUDS BELOW 12,000 FEET WITH NO
SIGNIFICANT WEATHER AND/OR OBSTRUCTIONS TO VISIBILITY.

ARZ001-003-010-029-010200-
NORTHWEST ARKANSAS

CITY           SKY/WX    TMP DP  RH WIND       PRES   REMARKS
FAYETTEVILLE   FAIR      82  72  71 SW5       29.95R HX  87
FORT SMITH     FAIR      89  68  49 SW6       29.90R HX  93
HARRISON       FAIR      79  74  84 CALM      29.96R
BENTONVILLE    FAIR      84  70  61 S3        29.96R HX  88
ROGERS         FAIR      84  71  65 SE3       29.96R HX  89
SILOAM SPGS    FAIR      82  68  61 S6        29.95R HX  85
HIGHFILL       FAIR      84  73  69 S3        29.94R HX  90
SPRINGDALE     CLEAR     86  70  58 SW6       29.97R HX  90
$$

ARZ004-005-016-010200-
NORTH CENTRAL ARKANSAS

CITY           SKY/WX    TMP DP  RH WIND       PRES   REMARKS
BATESVILLE     PTCLDY    82  72  69 S5        29.93R HX  87
FLIPPIN          N/A     82  72  69 CALM      29.91S HX  87
MTN HOME       FAIR      79  71  76 CALM      29.93R
$$

ARZ040-041-010200-
WEST CENTRAL ARKANSAS

CITY           SKY/WX    TMP DP  RH WIND       PRES   REMARKS
MENA           FAIR      88  72  58 CALM      29.97R HX  94
MOUNT IDA      FAIR      85  72  65 CALM      29.94R HX  91
$$

ARZ009-017-025-026-028-010200-
NORTHEAST ARKANSAS

CITY           SKY/WX    TMP DP  RH WIND       PRES   REMARKS
JONESBORO      FAIR      83  66  56 W6        29.91R HX  85
NEWPORT        FAIR      85  69  58 SW8       29.93R HX  89
WALNUT RIDGE   FAIR      82  70  65 SW7       29.90R HX  86
BLYTHEVILLE    FAIR      84  68  58 VRB5      29.91R HX  87
$$

ARZ022-023-033-042-044-010200-
CENTRAL ARKANSAS

CITY           SKY/WX    TMP DP  RH WIND       PRES   REMARKS
LITTLE ROCK    FAIR      85  70  60 S6        29.93R HX  89
N LITTLE ROCK  PTCLDY    85  72  63 SE6       29.93R HX  91
JACKSONVILLE   FAIR      83  74  73 SE2       29.93R HX  89
SEARCY         FAIR      82  73  74 S5        29.94R HX  87
HOT SPRINGS    FAIR      87  70  56 SW7       29.94R HX  92
RUSSELLVILLE   FAIR      84  77  79 CALM      29.92R HX  94
CLINTON        FAIR      82  77  83 CALM      29.94R HX  91
$$

ARZ036-010200-
EAST ARKANSAS

CITY           SKY/WX    TMP DP  RH WIND       PRES   REMARKS
WEST MEMPHIS   CLEAR     81  69  67 SW3       29.92R
$$

ARZ050-053-066-070-073-010200-
SOUTHWEST ARKANSAS

CITY           SKY/WX    TMP DP  RH WIND       PRES   REMARKS
ARKADELPHIA    FAIR      88  74  63 SW7       29.94R HX  96
TEXARKANA      FAIR      86  72  62 S6        29.95R HX  92
EL DORADO      CLEAR     80  69  69 SW6       29.97R
DE QUEEN       PTCLDY    87  75  67 S3        29.93R HX  96
$$

ARZ056-057-069-010200-
SOUTHEAST ARKANSAS

CITY           SKY/WX    TMP DP  RH WIND       PRES   REMARKS
PINE BLUFF     FAIR      86  74  67 S3        29.94R HX  94
STUTTGART      FAIR      86  70  58 MISG      29.94S HX  90
MONTICELLO     FAIR      85  78  80 CALM      29.94R HX  96

$$




USA.gov is the U.S. government's official web portal to all federal, state and local government web resources and services.